Location: Friaudour
(46.0460°N, 1.2873°E)
Time: 15:36:39
(UTC+00:00)

Spot 4 Rocket - Pass Details

Date: 26 October 2020
Orbit: 776 x 781 km, 98.7° (Epoch: 29 November)

Event Time Altitude Azimuth Distance (km) Brightness Sun altitude
Rises 02:29:21 0° 22° (NNE) 3,269 7.8 -40.9°
Reaches altitude 10° 02:31:53 10° 31° (NNE) 2,337 7.0 -40.5°
Enters shadow 02:33:19 18° 41° (NE) 1,859 6.5 -40.3°
